This demonstration page uses our WeatherBlox Daily Observations layout. Learn more.

Left ArrowRight Arrow

Hourly Observations for January 6, 2017

Temp ( °F °C ) Dew Point ( °F °C ) Humidity (%) Winds ( mph kmh ) Pressure ( in mb ) Visibility ( mi km ) Precip ( " mm )
12:14 am 00:14 Clear 1 -17 0 -18 92 92 WSW 6 9 30.24 1024 10 16.0934 N/A
12:35 am 00:35 Clear 3 -16 0 -18 85 85 SW 3 6 30.21 1023 10 16.0934 N/A
12:55 am 00:55 Partly Cloudy 5 -15 3 -16 92 92 W 3 6 30.21 1023 10 16.0934 N/A
1:15 am 01:15 Mostly Cloudy 5 -15 1 -17 85 85 WSW 3 6 30.21 1023 10 16.0934 N/A
1:35 am 01:35 Partly Cloudy 3 -16 0 -18 85 85 WSW 6 9 30.21 1023 10 16.0934 N/A
1:55 am 01:55 Partly Cloudy 3 -16 0 -18 85 85 WSW 6 9 30.24 1024 10 16.0934 N/A
2:15 am 02:15 Partly Cloudy 3 -16 0 -18 85 85 W 7 11 30.21 1023 10 16.0934 N/A
2:34 am 02:34 Clear 5 -15 1 -17 85 85 W 7 11 30.24 1024 10 16.0934 N/A
2:55 am 02:55 Clear 7 -14 3 -16 85 85 WNW 8 13 30.24 1024 10 16.0934 N/A
3:15 am 03:15 Clear 5 -15 1 -17 85 85 WNW 7 11 30.24 1024 10 16.0934 N/A
3:34 am 03:34 Clear 5 -15 1 -17 85 85 WNW 8 13 30.24 1024 10 16.0934 N/A
3:55 am 03:55 Clear 5 -15 1 -17 85 85 NW 7 11 30.24 1024 10 16.0934 N/A
4:15 am 04:15 Clear 5 -15 0 -18 78 78 WNW 8 13 30.24 1024 10 16.0934 N/A
4:34 am 04:34 Clear 1 -17 -2 -19 85 85 W 5 7 30.24 1024 10 16.0934 N/A
4:55 am 04:55 Mostly Cloudy 3 -16 0 -18 85 85 W 6 9 30.24 1024 10 16.0934 N/A
5:15 am 05:15 Cloudy 5 -15 1 -17 85 85 WNW 5 7 30.24 1024 10 16.0934 N/A
5:35 am 05:35 Cloudy 5 -15 1 -17 85 85 WNW 7 11 30.24 1024 10 16.0934 N/A
5:55 am 05:55 Cloudy 5 -15 -2 -19 72 72 WNW 8 13 30.24 1024 10 16.0934 N/A
6:14 am 06:14 Cloudy 5 -15 -2 -19 72 72 WNW 5 7 30.24 1024 10 16.0934 N/A
6:35 am 06:35 Partly Cloudy 1 -17 -4 -20 78 78 WNW 7 11 30.27 1025 10 16.0934 N/A
6:55 am 06:55 Clear 1 -17 -4 -20 78 78 W 6 9 30.27 1025 10 16.0934 N/A
7:14 am 07:14 Clear 3 -16 -2 -19 78 78 W 6 9 30.27 1025 10 16.0934 N/A
7:35 am 07:35 Clear 3 -16 -4 -20 72 72 WNW 8 13 30.3 1026 10 16.0934 N/A
7:55 am 07:55 Clear 3 -16 -4 -20 72 72 WNW 8 13 30.3 1026 10 16.0934 N/A
8:15 am 08:15 Sunny 3 -16 -4 -20 72 72 WNW 8 13 30.3 1026 10 16.0934 N/A
8:35 am 08:35 Sunny 3 -16 -4 -20 72 72 WNW 9 15 30.3 1026 10 16.0934 N/A
8:54 am 08:54 Sunny 1 -17 -4 -20 78 78 W 6 9 30.3 1026 10 16.0934 N/A
9:15 am 09:15 Sunny 3 -16 -4 -20 72 72 W 8 13 30.33 1027 10 16.0934 N/A
9:35 am 09:35 Sunny 3 -16 -2 -19 78 78 WNW 7 11 30.33 1027 10 16.0934 N/A
9:54 am 09:54 Sunny 5 -15 -2 -19 72 72 W 8 13 30.33 1027 10 16.0934 N/A
10:15 am 10:15 Sunny 5 -15 -2 -19 72 72 W 6 9 30.33 1027 10 16.0934 N/A
10:34 am 10:34 Sunny 7 -14 -2 -19 66 66 W 6 9 30.33 1027 10 16.0934 N/A
10:55 am 10:55 Sunny 7 -14 -2 -19 66 66 WNW 9 15 30.33 1027 10 16.0934 N/A
11:15 am 11:15 Sunny 7 -14 -2 -19 66 66 WNW 8 13 30.33 1027 10 16.0934 N/A
11:35 am 11:35 Sunny 9 -13 -2 -19 61 61 NW 8 13 30.36 1028 10 16.0934 N/A
11:54 am 11:54 Sunny 9 -13 -2 -19 61 61 WNW 10 17 30.36 1028 10 16.0934 N/A
12:15 pm 12:15 Sunny 9 -13 -2 -19 61 61 W 10 17 30.36 1028 10 16.0934 N/A
12:35 pm 12:35 Sunny 9 -13 -2 -19 61 61 WNW 10 17 30.36 1028 10 16.0934 N/A
12:54 pm 12:54 Sunny 9 -13 -2 -19 61 61 W 7 11 30.33 1027 10 16.0934 N/A
1:15 pm 13:15 Sunny 9 -13 -2 -19 61 61 NW 6 9 30.33 1027 10 16.0934 N/A
1:35 pm 13:35 Sunny 10 -12 -2 -19 56 56 W 10 17 30.33 1027 10 16.0934 N/A
1:55 pm 13:55 Sunny 10 -12 -2 -19 56 56 WNW 9 15 30.33 1027 10 16.0934 N/A
2:15 pm 14:15 Sunny 10 -12 -2 -19 56 56 WNW 10 17 30.33 1027 10 16.0934 N/A
2:34 pm 14:34 Sunny 10 -12 -2 -19 56 56 NW 10 17 30.33 1027 10 16.0934 N/A
2:55 pm 14:55 Sunny 10 -12 -2 -19 56 56 WNW 8 13 30.36 1028 10 16.0934 N/A
3:15 pm 15:15 Sunny 10 -12 -2 -19 56 56 WNW 7 11 30.36 1028 10 16.0934 N/A
3:35 pm 15:35 Sunny 10 -12 -2 -19 56 56 W 9 15 30.36 1028 10 16.0934 N/A
3:55 pm 15:55 Sunny 10 -12 -2 -19 56 56 WNW 8 13 30.36 1028 10 16.0934 N/A
4:14 pm 16:14 Sunny 10 -12 -2 -19 56 56 W 5 7 30.36 1028 10 16.0934 N/A
4:35 pm 16:35 Sunny 9 -13 -2 -19 61 61 NW 6 9 30.36 1028 10 16.0934 N/A
4:55 pm 16:55 Sunny 9 -13 -2 -19 61 61 NW 5 7 30.39 1029 10 16.0934 N/A
5:14 pm 17:14 Sunny 9 -13 -2 -19 61 61 NW 7 11 30.39 1029 7 11.26538 N/A
5:35 pm 17:35 Clear 5 -15 -4 -20 66 66 NW 5 7 30.39 1029 10 16.0934 N/A
5:55 pm 17:55 Partly Cloudy 3 -16 -4 -20 72 72 NNW 6 9 30.39 1029 10 16.0934 N/A
6:15 pm 18:15 Partly Cloudy 3 -16 -4 -20 72 72 NNW 7 11 30.39 1029 10 16.0934 N/A
6:35 pm 18:35 Mostly Cloudy 7 -14 -2 -19 66 66 NW 8 13 30.39 1029 10 16.0934 N/A
6:54 pm 18:54 Partly Cloudy 7 -14 -2 -19 66 66 NNW 7 11 30.39 1029 10 16.0934 N/A
7:15 pm 19:15 Clear 5 -15 -4 -20 66 66 NW 6 9 30.42 1030 10 16.0934 N/A
7:35 pm 19:35 Clear 5 -15 -4 -20 66 66 WNW 5 7 30.42 1030 10 16.0934 N/A
7:54 pm 19:54 Clear 5 -15 -4 -20 66 66 WNW 6 9 30.42 1030 10 16.0934 N/A
8:15 pm 20:15 Clear 5 -15 -4 -20 66 66 WNW 5 7 30.45 1031 10 16.0934 N/A
8:35 pm 20:35 Clear 5 -15 -4 -20 66 66 WNW 3 6 30.42 1030 10 16.0934 N/A
8:55 pm 20:55 Clear 5 -15 -2 -19 72 72 NW 5 7 30.42 1030 10 16.0934 N/A
9:15 pm 21:15 Clear 5 -15 -2 -19 72 72 NW 3 6 30.45 1031 10 16.0934 N/A
9:35 pm 21:35 Clear 5 -15 -2 -19 72 72 NW 5 7 30.45 1031 10 16.0934 N/A
9:55 pm 21:55 Clear 5 -15 -2 -19 72 72 NNW 7 11 30.45 1031 10 16.0934 N/A
10:15 pm 22:15 Clear 5 -15 -2 -19 72 72 NNW 6 9 30.45 1031 10 16.0934 N/A
10:35 pm 22:35 Clear 3 -16 -2 -19 78 78 NW 5 7 30.45 1031 10 16.0934 N/A
10:55 pm 22:55 Clear 5 -15 -2 -19 72 72 NW 3 6 30.45 1031 10 16.0934 N/A
11:14 pm 23:14 Clear 5 -15 -2 -19 72 72 Calm 30.48 1032 10 16.0934 N/A
11:35 pm 23:35 Clear 5 -15 -2 -19 72 72 NW 5 7 30.48 1032 10 16.0934 N/A
11:55 pm 23:55 Clear 5 -15 -2 -19 72 72 WNW 5 7 30.48 1032 10 16.0934 N/A

Powered by AerisWeather